Regional Weather Roundup
Issued by NWS

Home | Current Version | Previous Version | Text Only | Print | Product List | Glossary On
Versions: 1 2 3 4 5 6 7 8 9 10 11 12 13 14 15 16 17 18 19 20 21 22 23 24 25 26
000
ASUS44 KLIX 270111
RWRLA
LOUISIANA WEATHER ROUNDUP
NATIONAL WEATHER SERVICE NEW ORLEANS LA
800 PM CDT THU MAY 26 2016

NOTE: "FAIR" INDICATES FEW OR NO CLOUDS BELOW 12,000 FEET WITH NO
      SIGNIFICANT WEATHER AND/OR OBSTRUCTIONS TO VISIBILITY.
      SKY/WX - SKY CONDITION AND SIGNIFICANT WEATHER.
      TMP - AIR TEMPERATURE.    DP   - DEWPOINT TEMPERATURE.
      RH  - RELATIVE HUMIDITY.  PRES - PRESSURE.
      HX  - HEAT INDEX.         WCI  - WIND CHILL INDEX.

*  THESE STATIONS ARE NOT NWS OR FAA STATIONS AND ARE NOT UNDER
   NWS QUALITY CONTROL.

LAZ040-048-061>063-065-066-069-270200-
SOUTHEAST LOUISIANA

CITY           SKY/WX    TMP DP  RH WIND       PRES   REMARKS
N.O. AUDUBON   NOT AVBL
N.O. INTL ARPT CLOUDY    81  71  71 SE9       29.98F
N.O. LAKEFRONT CLOUDY    82  69  64 SE12      29.99F
N.O. DOWNTOWN* FAIR      82  72  71 S8        29.99F
RESERVE*       FAIR      80  72  75 SE7       29.99R
SLIDELL        CLOUDY    80  72  76 SE6       29.99F
BATON ROUGE    MOCLDY    81  66  60 SE10      29.97R
BOOTHVILLE     CLOUDY    77  71  82 SE7       30.01F
BELLE CHASSE   CLOUDY    80  71  74 SE10      29.99F
BOGALUSA*      FAIR      80  68  67 SE7       30.01F
GALLIANO*      CLOUDY    81  72  74 SE8       29.99F
NEW ROADS*     FAIR      80  71  74 S6        29.97R
GONZALES*      FAIR      80  70  70 S7        29.98R
HAMMOND*       MOCLDY    79  70  73 SE6       29.99R
HOUMA*         CLOUDY    79  73  80 S9        29.99R
PORT FOURCHON* MOCLDY    81  73  78 SE15G21   29.99S

$$

LAZ041-044-053-054-270200-
SOUTHWEST LOUISIANA

CITY           SKY/WX    TMP DP  RH WIND       PRES   REMARKS
LAKE CHARLES   LGT RAIN  78  74  87 SE9       29.92R
LAFAYETTE      CLOUDY    80  72  76 S7        29.96R
PATTERSON      CLOUDY    79  73  82 SE6       29.98S
SALT POINT       N/A     79  74  84 SE5       29.95S
NEW IBERIA     CLOUDY    79  72  79 SE10      29.96S
CHENAULT AIRPK PTCLDY    75  73  94 SE13      29.92S

$$

LAZ027-028-270200-
CENTRAL LOUISIANA

CITY           SKY/WX    TMP DP  RH WIND       PRES   REMARKS
FORT POLK      LGT RAIN  75  73  94 SE5       29.96S FOG
ALEXANDRIA INT LGT RAIN  79  72  79 S6        29.94R
ALEXANDRIA     CLOUDY    77  72  84 SW8       29.95R

$$

LAZ001-002-270200-
NORTHWEST LOUISIANA

CITY           SKY/WX    TMP DP  RH WIND       PRES   REMARKS
SHREVEPORT     LGT RAIN  75  72  90 S20       29.87F
BARKSDALE AFB  CLOUDY    75  75 100 S20       29.87F
DTN SHREVEPORT LGT RAIN  76  72  87 S26G37    29.86F

$$

LAZ014-016-270200-
NORTHEAST LOUISIANA

CITY           SKY/WX    TMP DP  RH WIND       PRES   REMARKS
MONROE         LGT RAIN  81  72  74 S6        29.93R
TALLULAH       CLOUDY    82  71  69 SE7       29.94F

$$





USA.gov is the U.S. government's official web portal to all federal, state and local government web resources and services.